Temp
81 80 77 73 71 70 70 72 74 76 76 77 77 77 78 79 78 75 75 74 74 76 76 77 77 77 78 79 80 80 80 80 80 81 81 81 80 80 78 80 83 83 87 89 89 90 89 89 90 92 91 90 89 89 87 88 88 91 89 88 88 87 88
81 81 80 77 67 66 67 69 71 72 74 75 74 74 75 75 78 80 78 74 74 75 75 75 75 75 75 77 79 79 79 80 81 81 81 79 79 78 79 80 81 82 81 85 90 90 90 93 91 90 91 91 91 89 89 88 88 88 88 87 87 86 86
80 80 80 80 81 82 80 75 69 70 72 74 73 74 73 72 73 74 75 75 74 74 74 75 76 76 76 77 78 78 80 80 80 80 79 78 78 78 78 78 78 79 82 82 83 90 92 92 90 90 90 91 93 89 88 88 87 89 87 86 87 87 85
79 80 80 81 81 81 81 82 80 69 70 74 72 74 74 74 75 75 74 76 75 75 75 74 74 76 75 76 77 77 78 80 81 80 79 78 77 77 77 77 77 77 76 79 84 87 93 92 93 90 90 89 89 90 89 88 90 89 88 86 86 87 85
80 81 81 81 81 81 81 81 82 83 77 72 71 73 75 75 76 73 73 75 75 75 76 75 75 78 78 75 75 78 80 80 81 81 79 78 78 77 77 78 77 78 77 78 79 81 88 90 93 90 90 88 89 89 89 89 89 88 87 87 85 86 86
81 81 80 81 81 81 81 82 83 83 83 82 80 80 81 78 79 78 76 76 75 76 77 77 77 77 76 76 76 77 79 80 81 81 80 79 78 77 77 78 78 78 78 79 82 83 87 91 91 90 89 91 91 91 92 90 89 89 87 85 85 86 86
78 79 79 81 82 82 82 82 83 84 84 83 82 81 81 80 80 80 77 76 76 76 77 77 78 78 78 76 74 75 76 77 80 80 81 79 78 77 77 78 78 79 80 81 83 84 86 88 89 89 89 90 89 91 88 86 87 88 86 84 84 84 85
79 78 79 80 81 82 81 79 79 81 83 83 81 80 79 81 80 79 78 78 77 77 75 76 77 77 77 76 76 76 77 79 80 80 80 79 78 78 78 79 78 80 81 83 83 85 87 88 91 90 89 90 90 89 91 88 86 88 88 86 84 85 88
81 79 78 79 80 81 81 80 79 80 79 78 80 79 79 79 79 78 78 78 77 76 77 78 78 76 75 75 75 75 75 75 75 76 75 77 80 79 78 78 80 82 82 84 85 86 87 89 90 89 89 88 87 87 89 88 88 88 88 87 85 84 86
77 76 76 77 78 79 78 78 78 78 77 77 77 78 79 79 78 78 78 77 76 75 75 76 78 76 75 75 74 75 75 75 75 76 76 76 77 79 79 79 79 80 83 85 86 87 88 89 89 88 86 87 87 88 87 87 87 88 88 87 86 85 84
78 76 75 76 76 76 76 76 75 75 75 75 77 77 78 78 78 78 78 78 76 75 75 75 76 76 75 74 75 76 75 74 74 74 75 74 74 78 79 79 79 79 80 82 84 86 88 87 85 83 86 88 89 87 86 88 88 86 87 87 87 85 84
77 77 76 76 76 76 75 74 75 75 75 76 77 77 77 77 78 79 79 78 77 76 75 74 75 75 75 75 73 73 75 75 75 74 75 75 76 78 80 80 79 79 80 81 81 83 84 82 81 84 84 87 88 89 87 86 87 86 86 85 82 81 80
77 76 76 77 77 77 76 76 76 76 76 77 77 77 77 77 77 77 78 79 77 75 75 76 75 75 75 76 73 71 73 73 74 74 75 76 77 77 76 78 80 79 78 79 79 80 80 82 81 82 83 83 85 87 86 85 86 84 81 80 80 78 79
77 78 78 78 77 77 75 76 76 76 76 77 77 77 77 78 78 77 78 78 79 77 75 76 75 75 75 74 74 73 72 71 73 73 74 75 75 75 75 75 75 78 79 79 78 79 81 82 83 83 82 82 80 80 81 82 83 81 80 79 78 77 77
75 76 76 77 76 77 77 76 75 76 76 77 77 77 77 77 77 77 77 78 79 79 76 74 74 74 74 74 72 71 73 72 73 74 74 74 75 75 75 75 75 75 75 76 76 78 80 80 80 80 81 81 80 80 82 81 82 83 80 79 78 77 77
74 75 76 77 77 77 76 77 77 77 77 77 77 77 77 77 77 77 76 77 79 78 75 73 73 73 73 74 72 72 73 71 72 72 73 73 74 74 74 75 76 74 74 75 77 78 78 77 77 77 76 77 79 79 78 81 82 83 80 79 78 76 76
74 75 75 76 76 76 76 77 77 77 77 77 77 78 77 77 77 77 77 77 78 77 75 73 71 72 72 72 73 73 73 72 72 72 71 73 74 74 75 75 74 73 74 75 76 76 76 76 75 74 74 74 74 76 76 76 81 80 74 74 76 78 76
74 74 75 75 76 76 76 76 77 77 77 77 77 78 78 77 77 77 76 77 77 77 76 73 72 71 71 72 72 72 73 72 72 72 71 72 73 73 74 74 72 73 72 72 73 74 75 75 75 75 75 75 75 73 74 76 78 73 72 73 73 78 77
75 76 76 76 76 75 76 76 76 76 77 78 78 78 79 79 78 77 77 77 77 77 77 75 73 72 72 73 73 73 73 74 74 73 73 73 73 72 72 72 72 72 72 72 73 74 73 74 76 76 77 76 74 74 77 76 75 70 71 71 71 73 78
77 77 77 77 77 77 77 77 77 78 78 78 79 80 80 80 79 79 79 78 78 77 76 75 74 73 72 73 73 73 75 74 73 73 73 74 74 74 73 73 73 73 72 71 73 74 74 74 74 76 76 78 78 77 79 78 77 70 70 70 70 71 75
77 77 77 77 76 77 77 77 77 78 78 78 79 79 79 79 80 79 79 79 77 77 75 75 75 74 74 74 75 75 75 75 73 74 76 76 75 74 75 74 73 72 72 72 72 72 73 73 75 77 77 77 79 79 80 80 73 68 69 68 68 70 75
77 77 76 77 77 77 76 78 77 78 78 79 80 80 79 79 80 79 78 79 78 77 76 76 75 75 75 74 75 76 75 75 74 74 74 75 75 75 74 75 74 73 73 72 72 74 72 73 75 74 74 77 79 78 78 79 67 67 67 66 66 69 76
79 78 79 79 80 78 79 79 79 80 79 79 79 79 78 79 79 79 79 78 78 77 76 76 75 74 75 75 76 75 73 74 75 74 74 75 75 74 73 74 74 73 73 72 72 72 71 72 72 74 74 75 77 77 77 78 67 64 65 65 65 69 75
82 81 81 80 80 80 80 80 80 80 79 78 78 79 79 80 79 78 77 77 77 77 76 76 75 75 74 73 75 76 74 74 74 74 74 74 74 74 75 75 74 73 73 72 71 71 72 73 74 74 73 73 75 75 76 77 72 63 63 63 64 70 73
83 83 82 81 80 79 80 78 78 78 79 79 77 78 79 79 79 78 77 77 77 77 76 75 75 74 74 75 76 76 76 75 75 74 74 74 75 75 75 75 74 74 73 72 72 73 73 75 74 74 75 75 75 76 76 77 72 63 62 61 62 69 72
80 82 81 81 82 82 80 79 78 78 78 77 78 80 79 80 78 77 76 77 77 76 76 76 76 76 76 76 75 74 76 76 75 75 74 74 75 75 74 74 74 74 74 73 74 74 74 73 75 75 75 77 77 77 77 75 72 67 60 61 61 65 72
83 82 82 81 80 80 80 79 78 78 77 77 77 78 79 79 79 77 76 76 76 76 76 77 77 77 77 77 76 77 76 76 75 74 74 75 74 74 74 73 72 72 73 73 74 73 72 73 74 73 75 75 76 75 75 76 74 66 59 60 61 65 72
83 83 83 82 80 79 79 79 78 77 78 78 78 78 78 78 76 75 75 76 76 77 79 78 78 78 77 76 74 74 76 76 76 76 75 74 74 72 72 72 72 72 72 70 70 70 70 73 74 75 74 73 75 74 74 75 74 68 61 59 59 61 66
79 79 79 79 80 81 79 77 76 76 76 78 78 78 78 77 75 75 76 75 76 78 78 77 77 77 77 76 74 73 74 75 75 75 75 74 74 73 72 72 72 72 71 69 68 68 69 70 74 75 74 74 74 74 73 72 71 68 66 60 58 58 59
79 80 81 82 82 80 78 75 76 76 77 77 77 77 77 75 74 74 74 74 76 76 75 76 77 76 75 75 74 74 75 74 75 75 74 74 73 73 72 71 71 71 71 70 69 68 69 70 74 75 74 73 73 73 73 72 70 69 68 64 58 56 57
78 79 80 79 78 78 77 75 74 75 75 77 77 77 76 75 74 73 72 74 76 75 74 75 76 76 75 74 74 76 77 76 75 74 74 73 72 72 71 71 71 70 71 70 69 67 68 68 73 74 74 73 74 73 73 72 71 69 66 64 61 58 57
78 77 78 78 78 77 76 76 76 75 74 75 76 76 76 76 76 73 74 76 76 76 74 74 74 75 75 75 75 76 77 75 74 75 75 74 73 72 71 71 70 69 68 69 68 68 69 69 72 74 75 74 74 73 72 72 71 69 68 68 68 64 60
75 76 75 74 76 75 75 75 74 73 72 72 74 75 76 75 76 76 75 74 77 77 75 74 74 74 74 74 75 77 77 73 70 72 74 75 74 73 72 71 71 71 70 69 68 69 69 70 74 75 76 75 74 74 74 72 71 71 69 70 69 69 67
74 75 75 75 75 75 74 72 70 70 70 70 72 73 74 74 74 75 75 75 75 76 75 74 74 74 75 76 76 75 76 74 73 71 70 73 77 74 73 72 72 71 70 70 70 68 69 70 70 74 77 76 76 74 74 73 72 72 70 70 71 72 71
74 74 73 73 73 72 71 70 69 69 69 70 72 72 72 72 74 75 75 75 75 74 71 72 73 74 75 75 76 75 76 75 74 73 73 76 75 75 74 72 73 72 71 72 73 72 74 74 74 75 79 81 77 75 74 75 74 73 67 71 66 70 73
73 73 72 72 72 72 71 70 69 68 69 70 72 71 71 71 72 73 75 75 74 74 72 70 71 73 75 76 76 75 74 74 71 70 69 70 70 70 71 68 60 62 70 73 64 58 57 64 76 77 79 82 81 79 78 78 78 64 58 58 54 51 54
72 71 70 71 70 70 70 69 69 70 70 71 71 70 69 69 72 72 73 74 74 73 72 71 70 71 73 75 75 74 74 73 73 71 70 71 70 70 70 71 70 54 49 57 62 53 46 47 48 51 56 71 80 70 55 63 60 55 54 52 48 46 47
73 72 71 71 70 69 68 69 70 70 70 71 71 71 70 70 71 72 74 72 71 72 72 71 70 69 71 73 74 74 74 73 72 71 70 70 70 67 67 68 70 69 51 47 51 49 46 45 45 46 48 49 58 74 71 58 53 52 51 50 47 46 45
MSLP
1013.13 1013.09 1013.73 1014.41 1014.61 1014.53 1013.85 1013.69 1013.29 1012.65 1012.25 1011.85 1011.49 1011.29 1011.09 1011.01 1011.49 1012.57 1012.93 1013.05 1013.01 1012.57 1012.57 1012.17 1011.89 1011.81 1011.65 1011.29 1011.01 1010.77 1010.65 1010.69 1010.73 1010.89 1010.89 1010.89 1010.85 1011.01 1011.21 1011.17 1011.21 1011.21 1010.85 1010.81 1010.85 1010.89 1010.73 1010.65 1010.81 1010.81 1010.85 1011.09 1011.33 1011.41 1011.49 1011.49 1011.61 1011.65 1011.81 1011.97 1012.17 1012.41 1012.53
1013.33 1013.05 1012.97 1013.65 1015.77 1016.13 1015.69 1014.53 1013.37 1012.97 1012.61 1012.37 1012.05 1011.85 1011.33 1011.05 1011.09 1011.41 1012.17 1012.89 1013.29 1013.05 1012.65 1012.57 1012.41 1012.05 1012.01 1011.61 1011.13 1010.81 1010.69 1010.53 1010.45 1010.49 1010.57 1010.65 1010.65 1010.73 1010.77 1010.85 1010.81 1010.85 1010.93 1010.69 1010.25 1010.21 1010.33 1010.33 1010.41 1010.73 1010.85 1010.85 1011.01 1011.05 1011.25 1011.37 1011.45 1011.61 1011.81 1012.01 1012.33 1012.53 1012.65
1013.37 1013.05 1012.93 1012.93 1012.85 1012.77 1012.93 1013.77 1014.57 1013.41 1012.53 1012.21 1011.93 1011.53 1011.33 1011.25 1011.29 1011.69 1011.97 1012.05 1012.17 1012.21 1012.57 1012.33 1012.17 1012.01 1011.97 1011.73 1011.25 1010.89 1010.49 1010.37 1010.41 1010.49 1010.57 1010.49 1010.45 1010.37 1010.37 1010.61 1010.73 1010.69 1010.49 1010.41 1010.45 1010.17 1009.97 1010.13 1010.13 1010.29 1010.45 1010.65 1010.69 1010.93 1011.13 1011.33 1011.37 1011.57 1011.77 1011.97 1012.21 1012.49 1012.69
1013.69 1013.37 1013.05 1012.61 1012.49 1012.33 1012.13 1011.97 1012.29 1014.29 1014.21 1013.25 1012.61 1011.77 1011.45 1011.09 1010.93 1011.17 1011.41 1011.37 1011.41 1011.25 1011.81 1012.13 1011.85 1011.61 1011.53 1011.45 1011.21 1010.97 1010.73 1010.37 1010.21 1010.37 1010.37 1010.21 1010.13 1010.01 1010.17 1010.37 1010.53 1010.57 1010.57 1010.21 1009.93 1010.05 1009.85 1009.85 1009.89 1010.05 1010.21 1010.49 1010.65 1010.65 1010.89 1011.13 1011.17 1011.37 1011.61 1011.89 1012.17 1012.25 1012.45
1013.49 1013.13 1013.01 1012.81 1012.61 1012.37 1012.21 1011.89 1011.61 1011.45 1012.57 1013.29 1013.21 1012.65 1012.13 1011.77 1011.49 1011.49 1011.25 1011.21 1011.49 1011.33 1011.17 1011.69 1011.29 1010.81 1010.97 1011.49 1011.33 1010.81 1010.41 1010.33 1010.17 1010.21 1010.29 1010.13 1009.97 1009.97 1010.05 1010.13 1010.21 1010.37 1010.13 1009.77 1009.45 1009.89 1009.81 1009.65 1009.73 1009.89 1010.01 1010.21 1010.45 1010.49 1010.73 1010.93 1011.09 1011.17 1011.45 1011.73 1012.13 1012.21 1012.41
1013.41 1013.17 1013.09 1012.93 1012.69 1012.45 1012.25 1011.97 1011.49 1011.37 1011.37 1011.45 1011.45 1011.25 1011.09 1011.29 1011.17 1011.45 1011.69 1011.61 1011.49 1011.21 1010.97 1010.89 1010.81 1010.69 1010.73 1010.81 1011.17 1010.97 1010.65 1010.37 1010.25 1010.17 1010.37 1010.25 1010.13 1010.13 1010.09 1009.93 1009.93 1009.97 1009.97 1009.61 1009.17 1009.49 1009.69 1009.49 1009.61 1009.81 1010.13 1010.05 1010.29 1010.45 1010.49 1010.77 1011.05 1011.13 1011.41 1011.73 1012.01 1012.17 1012.41
1014.17 1013.97 1013.73 1013.21 1012.81 1012.49 1012.37 1012.21 1011.77 1011.37 1011.21 1011.21 1011.17 1011.05 1011.01 1011.01 1011.05 1011.17 1011.33 1011.45 1011.13 1011.01 1010.69 1010.69 1010.33 1010.37 1010.41 1010.45 1011.13 1011.33 1011.25 1010.97 1010.41 1010.37 1010.25 1010.37 1010.25 1010.25 1010.13 1010.09 1010.01 1009.89 1009.61 1009.53 1009.41 1009.37 1009.69 1009.57 1009.53 1009.57 1009.77 1009.97 1010.21 1010.41 1010.57 1010.69 1010.85 1010.85 1011.17 1011.57 1011.89 1011.97 1012.13
1013.97 1014.41 1014.13 1013.73 1013.25 1012.81 1012.85 1012.93 1012.69 1012.05 1011.61 1011.25 1011.37 1011.45 1011.53 1011.13 1010.93 1011.05 1011.17 1011.05 1010.97 1010.93 1010.89 1010.85 1010.61 1010.33 1010.33 1010.33 1010.13 1010.49 1010.77 1010.65 1010.49 1010.49 1010.37 1010.41 1010.37 1010.25 1010.09 1009.89 1009.73 1009.53 1009.49 1009.61 1009.29 1009.25 1009.41 1009.37 1009.29 1009.33 1009.45 1009.69 1009.89 1010.17 1010.25 1010.37 1010.53 1010.57 1010.73 1011.25 1011.57 1011.81 1011.81
1013.53 1013.93 1014.37 1014.13 1013.57 1013.13 1012.93 1012.93 1012.77 1012.53 1012.41 1012.17 1011.61 1011.45 1011.49 1011.49 1011.37 1011.01 1010.65 1010.45 1010.49 1010.77 1010.73 1010.45 1010.33 1010.01 1009.81 1010.09 1010.25 1010.05 1009.93 1010.37 1011.01 1011.17 1011.13 1010.85 1010.29 1010.29 1010.21 1010.13 1009.89 1009.49 1009.57 1009.45 1009.25 1009.05 1009.05 1009.09 1009.09 1009.21 1009.29 1009.49 1009.65 1009.81 1009.93 1010.05 1010.21 1010.33 1010.53 1010.73 1011.05 1011.45 1011.57
1014.65 1014.77 1014.69 1014.33 1013.81 1013.49 1013.33 1013.09 1012.85 1012.69 1012.61 1012.33 1012.05 1011.65 1011.41 1011.33 1011.33 1011.25 1010.85 1010.29 1010.13 1010.29 1010.21 1010.13 1009.93 1009.77 1009.49 1009.41 1009.65 1009.89 1009.97 1009.85 1009.97 1010.53 1010.81 1010.93 1010.53 1010.21 1010.13 1010.13 1010.09 1009.69 1009.45 1009.17 1009.05 1009.13 1008.97 1008.89 1009.05 1009.25 1009.37 1009.49 1009.65 1009.77 1009.85 1009.85 1009.93 1010.05 1010.21 1010.45 1010.69 1011.01 1011.21
1014.45 1014.57 1014.57 1014.41 1014.21 1013.97 1013.69 1013.53 1013.37 1013.13 1012.81 1012.53 1012.01 1011.73 1011.49 1011.33 1011.09 1011.09 1010.89 1010.65 1010.49 1010.13 1009.89 1009.93 1009.73 1009.61 1009.45 1009.53 1009.77 1009.77 1010.05 1010.25 1010.01 1009.69 1009.97 1010.81 1010.97 1010.41 1009.97 1009.89 1009.77 1009.65 1009.65 1009.49 1009.29 1009.09 1009.01 1009.01 1009.09 1009.41 1009.49 1009.53 1009.61 1009.77 1009.81 1009.81 1009.77 1009.97 1010.05 1010.09 1010.17 1010.57 1010.85
1014.29 1014.09 1014.29 1014.21 1014.09 1013.89 1013.93 1013.73 1013.33 1013.09 1012.85 1012.49 1012.13 1011.97 1011.73 1011.49 1011.13 1010.69 1010.61 1010.53 1010.41 1010.49 1010.21 1009.85 1009.73 1009.69 1009.57 1009.53 1010.01 1010.45 1010.53 1010.45 1010.29 1010.01 1009.65 1009.77 1009.93 1009.93 1009.73 1009.65 1009.61 1009.65 1009.61 1009.53 1009.57 1009.37 1009.21 1009.29 1009.45 1009.61 1009.77 1009.53 1009.41 1009.45 1009.61 1009.65 1009.73 1009.85 1009.97 1010.17 1010.49 1010.77 1011.01
1014.33 1014.25 1014.01 1013.85 1013.57 1013.41 1013.33 1013.33 1013.29 1013.01 1012.69 1012.41 1012.25 1012.05 1011.85 1011.65 1011.37 1010.93 1010.49 1010.25 1010.21 1010.13 1010.13 1009.85 1009.77 1009.77 1009.77 1009.69 1010.17 1010.73 1011.01 1010.97 1010.81 1010.41 1010.29 1010.01 1009.73 1009.77 1010.01 1009.81 1009.45 1009.49 1009.65 1009.45 1009.49 1009.53 1009.49 1009.33 1009.49 1009.57 1009.69 1009.61 1009.49 1009.61 1009.69 1009.89 1009.73 1009.81 1010.05 1010.21 1010.45 1010.77 1010.97
1014.01 1013.85 1013.65 1013.41 1013.41 1013.37 1013.49 1013.25 1012.97 1012.85 1012.57 1012.29 1012.09 1011.85 1011.77 1011.57 1011.41 1011.17 1010.69 1010.33 1009.97 1009.93 1009.89 1009.65 1009.57 1009.61 1009.61 1009.85 1010.33 1010.97 1011.09 1011.29 1011.01 1010.85 1010.57 1010.21 1009.97 1009.89 1010.13 1010.17 1010.17 1009.69 1009.41 1009.29 1009.33 1009.37 1009.33 1009.33 1009.37 1009.33 1009.49 1009.53 1009.61 1009.69 1010.05 1010.25 1010.05 1009.93 1010.01 1010.25 1010.45 1010.69 1010.97
1014.57 1014.21 1013.85 1013.65 1013.41 1013.21 1013.09 1013.13 1012.93 1012.65 1012.37 1012.13 1011.93 1011.85 1011.69 1011.53 1011.41 1011.13 1010.81 1010.37 1009.97 1009.81 1010.05 1009.65 1009.33 1009.41 1009.53 1009.69 1010.21 1010.61 1010.65 1010.93 1010.89 1010.61 1010.53 1010.57 1010.41 1010.09 1010.01 1009.97 1010.05 1010.13 1009.97 1009.69 1009.29 1009.17 1009.09 1009.13 1009.17 1009.33 1009.37 1009.49 1009.61 1009.85 1010.01 1010.01 1009.97 1009.81 1009.85 1010.05 1010.25 1010.37 1010.61
1014.65 1014.29 1014.01 1013.85 1013.53 1013.33 1013.05 1012.81 1012.53 1012.29 1012.13 1011.93 1011.81 1011.73 1011.61 1011.49 1011.25 1011.09 1010.97 1010.65 1010.17 1010.09 1009.93 1009.41 1009.37 1009.33 1009.33 1009.49 1009.57 1009.49 1009.49 1009.61 1009.57 1009.69 1009.73 1009.89 1009.93 1009.93 1009.73 1009.65 1009.57 1009.89 1010.09 1010.01 1009.53 1009.21 1009.05 1009.13 1009.25 1009.33 1009.57 1009.81 1009.85 1010.01 1010.37 1010.21 1009.81 1009.53 1009.45 1009.53 1009.77 1010.01 1010.25
1014.57 1014.37 1013.97 1013.69 1013.49 1013.29 1013.05 1012.77 1012.49 1012.21 1012.01 1011.81 1011.65 1011.49 1011.41 1011.33 1011.13 1010.93 1010.89 1010.69 1010.41 1010.21 1009.73 1009.29 1009.29 1009.41 1009.69 1009.61 1009.01 1008.77 1008.81 1009.05 1009.29 1009.49 1009.61 1009.41 1009.17 1008.93 1008.77 1008.69 1008.77 1009.37 1009.81 1009.73 1009.45 1009.41 1009.29 1009.37 1009.53 1009.57 1009.69 1009.97 1010.17 1010.37 1010.73 1010.69 1009.85 1009.37 1009.21 1009.17 1009.25 1009.49 1009.89
1014.65 1014.33 1013.93 1013.65 1013.41 1013.17 1012.97 1012.77 1012.53 1012.37 1012.13 1011.77 1011.45 1011.21 1011.09 1011.05 1010.93 1010.89 1010.93 1010.73 1010.57 1010.17 1009.73 1009.73 1009.69 1009.73 1009.81 1009.77 1009.61 1009.33 1009.13 1009.25 1009.41 1009.49 1009.37 1009.29 1009.25 1009.01 1008.81 1008.49 1008.45 1008.65 1009.01 1009.49 1009.65 1009.53 1009.45 1009.53 1009.49 1009.41 1009.49 1009.81 1010.25 1010.57 1010.49 1010.37 1009.97 1009.53 1009.29 1009.13 1009.09 1009.17 1009.45
1014.45 1013.93 1013.61 1013.37 1013.25 1013.13 1012.85 1012.69 1012.49 1012.29 1012.05 1011.69 1011.33 1011.13 1010.81 1010.73 1010.81 1010.85 1010.69 1010.65 1010.37 1010.01 1009.81 1009.93 1009.97 1009.85 1009.65 1009.49 1009.45 1009.41 1009.25 1009.17 1009.21 1009.13 1009.01 1008.81 1008.69 1008.69 1008.73 1008.61 1008.45 1008.77 1008.89 1009.09 1009.25 1009.45 1009.65 1009.73 1009.37 1009.21 1009.13 1009.53 1010.05 1010.21 1009.85 1009.77 1009.53 1009.29 1009.09 1008.89 1008.81 1008.89 1009.09
1013.85 1013.53 1013.29 1013.09 1012.89 1012.73 1012.53 1012.37 1012.25 1012.01 1011.77 1011.53 1011.17 1010.85 1010.65 1010.45 1010.53 1010.41 1010.21 1010.17 1010.09 1009.97 1009.81 1009.89 1009.93 1009.81 1009.65 1009.45 1009.21 1009.05 1009.09 1009.21 1009.33 1009.33 1009.13 1008.93 1008.77 1008.69 1008.73 1008.81 1008.89 1009.01 1009.17 1009.29 1009.37 1009.53 1009.57 1009.53 1009.41 1008.85 1008.81 1008.85 1009.05 1009.21 1008.93 1008.81 1008.69 1008.77 1008.73 1008.77 1008.81 1008.89 1008.89
1013.81 1013.49 1013.29 1013.05 1012.89 1012.57 1012.33 1012.17 1012.05 1011.81 1011.61 1011.41 1011.21 1010.93 1010.61 1010.49 1010.25 1010.13 1010.09 1010.01 1010.09 1009.81 1009.85 1009.73 1009.77 1009.73 1009.57 1009.49 1009.21 1008.97 1008.93 1009.13 1009.41 1009.29 1008.93 1008.69 1008.77 1008.85 1008.73 1008.73 1008.89 1009.33 1009.57 1009.57 1009.73 1009.81 1009.65 1009.49 1009.29 1008.69 1008.49 1008.57 1008.37 1008.41 1008.37 1008.25 1008.29 1008.41 1008.45 1008.61 1008.73 1008.81 1008.85
1013.69 1013.33 1013.29 1012.89 1012.69 1012.45 1012.37 1012.17 1012.01 1011.73 1011.45 1011.05 1010.97 1010.81 1010.69 1010.61 1010.17 1010.09 1010.05 1009.81 1009.85 1009.77 1009.69 1009.65 1009.53 1009.45 1009.29 1009.29 1009.01 1008.89 1008.93 1009.09 1009.29 1009.29 1009.21 1009.05 1008.85 1008.85 1008.81 1008.65 1008.77 1008.97 1009.01 1009.25 1009.17 1009.01 1009.57 1009.69 1009.17 1009.21 1009.21 1008.57 1008.09 1008.25 1008.29 1008.01 1008.01 1008.09 1008.33 1008.53 1008.69 1008.73 1008.81
1013.25 1013.05 1012.69 1012.45 1012.29 1012.17 1011.81 1011.57 1011.49 1011.33 1011.17 1011.05 1010.89 1010.85 1010.69 1010.37 1010.13 1010.05 1009.89 1009.81 1009.69 1009.69 1009.65 1009.57 1009.61 1009.65 1009.49 1009.25 1008.89 1008.89 1008.85 1008.85 1008.85 1008.85 1008.81 1008.85 1008.89 1008.85 1008.73 1008.65 1008.65 1008.65 1008.69 1008.97 1008.97 1008.97 1008.97 1008.81 1008.73 1008.73 1008.97 1008.85 1008.37 1008.17 1008.05 1007.89 1007.93 1008.09 1008.17 1008.33 1008.45 1008.69 1008.85
1012.57 1012.41 1012.21 1012.17 1011.93 1011.65 1011.37 1011.21 1011.21 1011.17 1011.21 1011.09 1010.85 1010.57 1010.29 1010.09 1010.01 1009.97 1009.89 1009.77 1009.61 1009.65 1009.61 1009.57 1009.57 1009.41 1009.33 1009.33 1009.01 1008.69 1008.57 1008.49 1008.45 1008.49 1008.49 1008.57 1008.69 1008.65 1008.49 1008.41 1008.41 1008.41 1008.29 1008.57 1008.69 1008.65 1008.57 1008.49 1008.49 1008.69 1008.45 1008.41 1008.33 1008.25 1008.05 1007.77 1007.73 1007.97 1008.13 1008.33 1008.53 1008.61 1008.65
1012.49 1012.29 1012.05 1011.85 1011.73 1011.65 1011.37 1011.37 1011.33 1011.21 1010.97 1010.81 1010.81 1010.41 1010.13 1009.97 1009.81 1009.81 1009.81 1009.65 1009.61 1009.53 1009.61 1009.57 1009.41 1009.25 1009.09 1008.93 1008.65 1008.53 1008.09 1008.05 1008.01 1008.05 1008.13 1008.21 1008.25 1008.17 1008.21 1008.21 1008.13 1007.97 1007.97 1008.25 1008.41 1008.33 1008.21 1008.25 1008.41 1008.37 1008.01 1007.97 1008.09 1007.97 1007.77 1007.61 1007.81 1007.93 1008.13 1008.33 1008.41 1008.45 1008.41
1012.53 1012.05 1011.97 1011.61 1011.33 1011.21 1011.25 1011.17 1011.05 1011.01 1010.97 1010.85 1010.65 1010.21 1010.09 1009.89 1009.77 1009.77 1009.69 1009.57 1009.45 1009.53 1009.49 1009.29 1009.09 1008.77 1008.53 1008.45 1008.49 1008.41 1007.85 1007.69 1007.81 1007.81 1007.81 1007.85 1007.81 1007.81 1007.97 1007.93 1007.89 1007.77 1007.77 1007.73 1007.77 1008.01 1008.25 1008.41 1008.13 1008.01 1007.85 1007.57 1007.57 1007.57 1007.49 1007.69 1007.93 1008.13 1008.21 1008.33 1008.25 1008.29 1008.29
1012.09 1011.89 1011.97 1011.81 1011.69 1011.33 1011.21 1011.09 1011.05 1011.01 1010.97 1010.81 1010.61 1010.37 1010.05 1009.89 1009.85 1009.89 1009.69 1009.53 1009.53 1009.41 1009.09 1008.77 1008.53 1008.37 1008.17 1008.09 1008.09 1007.81 1007.57 1007.41 1007.53 1007.73 1007.61 1007.45 1007.57 1007.61 1007.69 1007.69 1007.65 1007.53 1007.45 1007.37 1007.41 1008.01 1008.69 1008.57 1008.05 1008.01 1007.81 1007.65 1007.65 1007.73 1007.61 1007.57 1007.85 1008.21 1008.29 1008.21 1008.25 1008.29 1008.21
1012.17 1012.13 1011.85 1011.57 1011.45 1011.33 1011.21 1011.13 1011.21 1011.09 1010.85 1010.57 1010.41 1010.25 1010.09 1009.97 1010.09 1009.93 1009.73 1009.57 1009.53 1009.09 1008.49 1008.53 1008.33 1008.13 1008.05 1008.01 1008.33 1008.05 1007.49 1007.29 1007.21 1007.21 1007.29 1007.25 1007.37 1007.61 1007.65 1007.57 1007.57 1007.53 1007.21 1007.05 1007.13 1007.85 1008.77 1008.65 1008.01 1007.73 1007.85 1007.93 1007.73 1007.69 1007.69 1007.69 1007.77 1008.21 1008.37 1008.33 1008.33 1008.33 1008.25
1012.65 1012.61 1012.41 1011.93 1011.45 1011.17 1011.29 1011.53 1011.49 1011.25 1010.93 1010.49 1010.25 1010.09 1009.97 1009.97 1010.05 1009.89 1009.65 1009.65 1009.25 1008.69 1008.61 1008.65 1008.25 1008.05 1007.93 1007.93 1008.09 1008.05 1007.81 1007.41 1007.25 1007.25 1007.09 1007.09 1007.09 1007.29 1007.41 1007.33 1007.45 1007.49 1007.37 1007.29 1007.21 1007.49 1008.61 1009.09 1008.25 1007.81 1007.93 1007.81 1007.77 1007.69 1007.81 1008.01 1008.09 1008.09 1008.37 1008.53 1008.49 1008.45 1008.45
1012.69 1012.53 1012.13 1011.69 1011.45 1011.33 1011.57 1011.73 1011.45 1011.21 1010.81 1010.45 1010.17 1010.01 1009.97 1010.05 1010.09 1009.85 1009.77 1009.57 1008.97 1008.93 1008.85 1008.49 1008.13 1007.93 1007.89 1007.85 1007.69 1007.53 1007.41 1007.33 1007.17 1007.09 1007.05 1007.01 1007.01 1007.09 1007.17 1007.21 1007.25 1007.25 1007.13 1007.09 1007.01 1007.37 1008.41 1009.01 1008.25 1007.77 1007.81 1007.89 1007.85 1007.73 1007.73 1007.93 1008.21 1008.25 1008.21 1008.41 1008.61 1008.65 1008.69
1012.89 1012.41 1012.05 1011.97 1011.97 1011.73 1011.69 1011.73 1011.53 1011.13 1010.77 1010.37 1010.17 1009.93 1009.93 1009.97 1009.97 1009.85 1009.89 1009.41 1008.97 1008.89 1008.77 1008.53 1008.17 1008.01 1007.77 1007.57 1007.37 1007.09 1006.89 1006.89 1006.93 1006.89 1006.85 1006.89 1006.93 1007.05 1007.17 1007.21 1007.29 1007.45 1007.17 1007.33 1007.57 1007.49 1008.01 1008.93 1008.33 1007.81 1007.69 1007.69 1007.73 1007.73 1007.77 1007.89 1008.17 1008.49 1008.57 1008.53 1008.69 1008.81 1008.85
1012.81 1012.61 1012.41 1012.29 1012.05 1011.81 1011.73 1011.49 1011.25 1011.09 1010.93 1010.49 1010.13 1010.01 1009.77 1009.65 1009.53 1009.69 1009.41 1008.89 1008.77 1008.57 1008.53 1008.37 1008.25 1007.97 1007.69 1007.37 1007.05 1006.73 1006.57 1006.85 1006.85 1006.65 1006.57 1006.61 1006.65 1006.77 1006.77 1007.01 1007.17 1007.25 1007.01 1007.09 1007.37 1007.45 1007.85 1008.81 1008.17 1007.69 1007.49 1007.57 1007.53 1007.57 1007.65 1007.81 1008.13 1008.45 1008.69 1008.73 1008.69 1008.73 1008.81
1013.05 1012.81 1012.69 1012.57 1012.17 1011.85 1011.73 1011.61 1011.45 1011.21 1011.01 1010.89 1010.33 1010.09 1009.77 1009.57 1009.33 1009.13 1008.89 1008.93 1008.49 1008.29 1008.25 1008.25 1008.09 1007.85 1007.53 1007.33 1006.97 1006.49 1006.37 1006.73 1007.29 1007.13 1006.73 1006.41 1006.37 1006.41 1006.49 1006.61 1006.81 1006.77 1006.49 1006.49 1007.01 1007.41 1007.49 1008.17 1008.01 1007.57 1007.37 1007.41 1007.37 1007.21 1007.33 1007.57 1007.81 1008.17 1008.57 1008.69 1008.69 1008.77 1008.93
1013.01 1012.81 1012.53 1012.37 1012.05 1011.89 1011.77 1011.77 1011.81 1011.57 1011.21 1010.93 1010.49 1010.17 1010.01 1009.69 1009.37 1009.01 1008.85 1008.65 1008.45 1008.21 1008.29 1008.21 1007.97 1007.77 1007.45 1007.13 1006.81 1006.65 1006.49 1006.61 1006.73 1007.13 1007.13 1006.53 1006.05 1006.17 1006.25 1006.29 1006.37 1006.65 1006.61 1006.37 1006.45 1006.89 1007.05 1007.61 1008.25 1007.77 1007.01 1007.01 1007.09 1007.17 1007.21 1007.53 1007.69 1007.85 1008.21 1008.45 1008.49 1008.57 1008.69
1012.85 1012.77 1012.65 1012.49 1012.21 1012.05 1012.09 1011.89 1011.77 1011.49 1011.29 1010.81 1010.29 1010.09 1009.97 1009.65 1009.25 1008.89 1008.77 1008.57 1008.33 1008.37 1008.73 1008.41 1007.85 1007.53 1007.41 1007.09 1006.77 1006.61 1006.45 1006.49 1006.65 1006.93 1006.77 1006.17 1006.01 1005.81 1005.85 1005.97 1006.09 1006.33 1006.49 1006.21 1006.05 1006.09 1006.13 1006.61 1007.13 1007.09 1006.45 1006.13 1006.45 1006.93 1007.25 1007.25 1007.45 1007.49 1007.33 1007.69 1007.97 1008.21 1008.41
1012.97 1012.81 1012.69 1012.41 1012.21 1012.05 1011.85 1011.73 1011.65 1011.41 1011.05 1010.57 1010.05 1010.01 1010.01 1009.77 1009.33 1009.01 1008.69 1008.53 1008.41 1008.37 1008.37 1008.25 1007.97 1007.65 1007.37 1006.97 1006.65 1006.57 1006.57 1006.61 1006.65 1006.61 1006.65 1006.65 1006.73 1006.77 1006.29 1005.85 1005.93 1006.09 1006.21 1006.25 1006.29 1006.29 1005.85 1005.69 1005.89 1006.01 1005.93 1005.89 1005.73 1005.85 1006.37 1006.53 1006.41 1006.53 1007.09 1007.41 1007.85 1008.13 1008.17
1012.93 1012.85 1012.77 1012.45 1012.29 1012.05 1011.85 1011.57 1011.33 1011.01 1010.65 1010.17 1009.85 1009.97 1010.17 1009.97 1009.33 1008.97 1008.69 1008.53 1008.53 1008.45 1008.25 1008.13 1008.05 1007.77 1007.37 1006.97 1006.73 1006.65 1006.65 1006.61 1006.65 1006.65 1006.53 1006.41 1006.61 1006.77 1006.73 1006.61 1005.97 1005.97 1006.21 1006.45 1006.21 1006.17 1006.01 1005.93 1005.97 1006.01 1005.93 1005.77 1005.89 1005.89 1005.85 1005.41 1005.57 1006.41 1007.05 1007.49 1007.85 1008.05 1008.17
1012.73 1012.69 1012.57 1012.37 1012.17 1012.05 1011.89 1011.45 1011.01 1010.73 1010.37 1009.97 1009.73 1009.69 1009.61 1009.45 1009.09 1008.77 1008.49 1008.69 1008.77 1008.53 1008.29 1008.05 1008.05 1007.93 1007.49 1007.05 1006.65 1006.49 1006.57 1006.61 1006.69 1006.77 1006.81 1006.41 1006.13 1006.65 1007.17 1007.09 1006.73 1006.29 1006.29 1006.81 1007.01 1006.65 1006.57 1006.37 1006.25 1006.13 1005.89 1005.85 1005.81 1005.85 1006.33 1006.45 1006.21 1006.45 1007.05 1007.61 1008.05 1008.21 1008.29
Wind_Speed
7 7 9 7 7 10 12 9 9 7 5 7 8 9 7 5 4 5 7 9 11 7 5 8 8 7 9 10 12 9 8 8 8 8 6 5 4 4 5 5 5 5 6 8 8 8 6 7 8 8 6 7 7 7 6 4 4 5 2 2 2 2 2
8 9 8 7 11 11 8 8 12 7 5 3 6 6 7 6 5 2 3 7 8 9 7 6 8 8 8 9 8 9 10 10 9 7 5 4 4 4 4 5 5 5 4 7 6 7 7 8 8 8 9 9 10 6 5 4 3 3 4 4 3 3 3
9 9 9 10 10 9 6 8 9 8 9 7 6 6 7 7 4 4 5 3 5 7 9 12 10 11 10 11 12 11 11 11 10 8 7 6 7 7 6 5 4 4 4 4 7 8 8 9 7 8 8 7 8 7 6 6 5 6 5 4 4 5 4
10 11 10 11 11 10 10 11 9 12 4 5 10 10 9 11 8 5 4 4 5 8 9 6 11 10 11 10 11 11 11 12 10 10 7 7 7 7 6 6 5 4 5 5 5 9 9 10 10 8 8 8 8 8 9 9 7 7 7 5 5 5 5
8 8 8 8 9 8 9 10 11 10 8 8 8 5 5 3 3 1 5 8 6 8 6 8 11 11 8 11 11 9 10 11 10 9 9 6 7 7 8 9 8 8 8 6 5 8 12 7 9 5 8 7 7 5 5 7 7 6 5 6 5 6 5
10 10 10 9 8 7 9 10 11 11 10 10 8 5 4 5 4 3 3 0 2 6 5 7 10 7 8 8 9 8 8 9 9 9 10 10 8 7 8 9 8 9 9 8 6 7 11 9 9 7 8 8 7 9 8 9 8 7 7 6 5 6 6
8 10 10 11 10 10 10 12 12 11 11 8 7 5 5 5 5 5 3 2 3 5 6 7 7 6 6 5 7 10 10 10 10 11 10 12 10 6 7 6 7 6 6 7 8 9 10 9 9 7 6 9 8 11 7 6 7 8 7 7 7 6 6
2 3 8 10 11 11 11 12 14 14 13 9 6 6 5 5 4 3 4 4 3 3 2 3 4 5 6 2 5 7 9 11 9 10 9 11 10 9 9 10 8 7 8 10 9 9 10 10 9 8 8 8 9 10 10 8 6 6 7 9 9 9 8
9 9 9 10 10 10 9 10 10 10 12 14 11 7 5 5 5 2 2 1 1 3 5 5 5 4 5 4 5 7 7 7 9 10 11 12 9 10 8 6 7 8 10 10 8 6 8 10 9 8 8 8 6 6 7 7 8 7 6 6 7 8 9
6 5 6 9 8 9 9 9 10 9 10 9 10 12 12 10 5 5 4 1 2 2 1 3 4 2 3 4 5 7 7 8 8 10 9 10 10 11 9 6 6 6 7 7 7 8 8 9 8 8 7 7 7 8 7 6 6 7 8 7 7 8 8
3 3 5 6 7 7 8 9 9 9 9 9 10 9 9 10 9 4 6 6 5 0 1 2 3 3 3 4 6 6 7 6 7 9 7 9 9 10 8 9 7 7 7 7 7 7 8 5 4 5 6 7 9 8 8 8 7 7 7 8 8 8 7
7 5 4 6 6 6 7 6 7 7 8 8 10 10 10 10 10 10 7 5 5 6 2 1 4 5 4 1 5 8 10 9 7 9 10 9 10 12 11 9 8 6 5 7 7 6 5 2 2 6 6 7 8 8 7 7 7 6 8 4 3 2 2
6 7 8 8 6 5 6 7 8 8 8 8 9 9 8 9 10 10 10 8 3 5 4 4 5 6 5 2 2 7 9 9 9 8 8 8 8 7 8 9 8 7 8 7 6 7 7 5 7 6 6 4 5 7 6 7 8 5 3 5 5 5 5
9 8 8 6 7 8 9 9 9 9 9 9 8 8 8 8 9 10 11 11 9 3 5 5 5 6 7 4 4 5 5 7 11 8 10 7 5 6 10 9 9 8 8 7 7 7 8 7 6 5 5 4 4 4 7 6 2 4 5 5 5 4 4
10 10 10 11 10 9 9 9 9 10 9 8 9 9 9 8 7 8 9 11 10 9 6 5 6 5 4 3 2 4 7 5 7 10 7 8 9 8 8 7 8 9 9 8 7 6 5 4 4 6 4 3 4 6 4 3 6 4 5 6 6 5 5
9 10 11 12 12 12 10 11 10 9 10 10 10 10 10 8 9 8 9 10 11 8 7 5 5 5 5 3 2 3 5 6 7 9 8 7 8 8 8 8 6 6 6 8 7 7 5 3 5 7 6 5 5 1 1 6 5 7 10 8 6 6 6
10 11 11 11 11 12 11 11 10 11 11 11 11 11 8 8 8 9 9 9 10 7 3 7 8 6 4 4 3 4 5 6 7 7 8 6 6 8 10 8 5 5 7 9 8 5 6 6 7 7 7 7 6 5 5 8 8 11 14 14 13 8 7
10 11 11 11 11 11 12 12 12 11 12 12 11 11 9 8 8 8 8 8 8 9 4 3 6 7 7 6 7 6 4 4 4 6 7 6 6 7 6 6 6 4 5 4 7 6 6 9 9 8 7 5 3 6 10 11 10 9 13 14 14 12 7
10 11 11 10 11 12 12 12 11 11 11 11 11 10 10 10 8 8 7 8 8 8 7 4 5 6 6 5 5 5 5 3 5 6 6 7 8 8 7 7 7 5 4 6 7 6 8 11 10 8 8 7 7 11 13 10 12 12 14 15 15 14 11
12 12 11 11 11 11 11 10 11 11 11 11 11 11 10 9 9 8 8 7 6 7 6 7 6 7 7 7 5 5 4 4 4 6 6 4 5 6 7 7 8 6 6 7 9 11 11 11 11 9 9 9 10 11 11 10 12 16 16 16 15 14 12
11 11 12 11 11 12 12 11 12 12 12 11 12 11 10 9 9 8 7 8 7 6 5 6 6 5 5 6 5 4 4 3 5 7 7 6 6 6 7 5 5 4 3 3 6 9 8 7 9 9 8 9 10 10 9 7 12 17 16 15 15 14 12
12 12 11 11 12 11 12 14 14 14 12 11 12 11 10 10 9 9 7 7 7 7 6 7 8 8 5 6 5 3 3 4 4 6 6 7 6 5 5 4 4 3 2 3 4 3 4 8 6 6 7 8 7 8 8 7 9 12 13 12 12 13 9
12 12 11 11 13 13 11 11 12 13 11 12 13 12 10 10 9 9 9 7 7 7 7 7 7 8 9 8 5 1 2 4 5 5 5 4 5 6 6 6 4 4 4 4 4 5 3 4 6 7 6 8 8 7 7 6 7 10 11 12 13 8 6
11 13 13 12 11 12 12 10 11 12 12 14 13 12 10 10 9 9 9 7 7 8 8 7 7 8 9 8 7 4 3 3 5 5 5 5 5 6 5 4 3 4 3 5 5 6 5 6 6 4 5 7 9 8 7 5 8 12 9 9 9 8 6
14 13 13 12 11 11 12 11 12 12 12 11 12 11 12 12 11 9 9 7 7 8 9 7 6 6 8 8 7 7 4 4 4 3 5 5 6 6 5 3 4 4 4 4 4 5 5 5 5 6 6 6 8 11 7 4 3 7 8 9 10 9 6
14 14 13 13 13 13 13 12 12 12 12 12 11 13 14 14 11 10 9 8 8 8 9 7 6 6 7 8 7 7 5 3 4 5 5 6 6 4 4 4 4 5 5 4 4 3 3 6 6 5 4 4 5 5 5 2 4 4 8 9 11 11 6
14 14 15 15 14 16 12 10 12 13 13 11 11 12 13 13 13 11 10 9 8 9 8 6 6 7 7 7 8 7 5 4 3 5 6 6 5 4 4 5 7 6 4 3 2 2 4 7 4 5 3 1 1 1 2 1 4 5 6 7 7 3 2
16 15 15 14 13 12 11 13 14 15 15 12 12 11 12 12 12 10 10 11 12 11 9 8 8 7 8 7 8 10 6 4 4 4 5 5 5 6 6 6 6 6 5 3 4 3 6 9 6 4 3 3 3 1 2 3 4 5 4 7 8 7 6
16 16 16 16 14 14 14 14 15 15 15 13 12 11 10 12 12 12 11 11 12 11 10 10 8 8 9 6 6 8 9 7 6 5 5 6 6 6 6 5 5 6 3 4 4 4 4 10 7 4 4 4 4 4 4 4 4 8 7 7 8 9 9
15 15 16 16 18 17 15 14 15 16 16 14 12 10 10 11 11 11 11 12 9 7 7 10 9 8 9 7 6 6 6 7 7 5 5 5 6 6 6 5 4 3 2 4 4 5 1 8 7 5 5 5 5 4 4 4 4 6 9 8 7 7 8
15 17 17 18 17 16 14 14 16 15 16 14 14 12 9 9 11 12 12 10 7 6 8 10 11 10 9 8 8 7 6 5 5 6 5 6 6 6 6 6 5 3 2 3 3 4 4 7 7 6 5 4 5 5 4 4 4 4 5 7 7 7 7
15 16 16 16 16 16 15 15 16 16 16 16 15 14 10 10 10 12 9 8 7 7 6 9 10 11 9 9 9 8 6 6 7 6 6 5 5 5 4 4 4 4 5 4 3 3 4 7 7 5 5 5 4 5 6 6 4 4 4 4 5 4 5
14 15 15 15 16 16 15 16 16 17 16 17 16 13 13 13 11 10 9 9 9 9 7 8 10 10 9 8 9 8 4 1 4 8 7 5 5 5 5 4 5 5 5 6 5 3 3 3 7 6 5 6 6 5 6 6 6 5 5 4 4 4 3
14 14 14 14 15 15 15 13 13 15 16 13 13 12 13 13 12 10 10 9 9 9 8 8 9 10 10 11 9 7 6 4 4 6 7 7 6 6 6 6 6 6 5 6 7 7 6 5 7 8 6 5 5 5 5 5 5 6 6 5 5 5 5
13 14 14 15 14 12 12 11 12 14 15 15 12 11 12 13 12 10 10 9 9 7 8 10 12 11 12 10 8 7 4 4 4 4 7 8 6 5 4 5 6 4 1 1 2 6 7 7 8 8 7 5 6 7 6 7 7 6 6 8 6 5 6
12 14 14 13 12 13 14 13 12 13 14 13 11 9 10 12 12 9 9 9 8 8 7 8 10 11 11 9 9 5 5 4 2 3 5 7 5 6 3 2 2 1 1 3 3 1 3 3 3 2 1 3 2 3 6 7 8 13 15 14 11 7 6
13 13 12 12 13 14 16 15 14 14 15 13 10 7 8 11 11 8 8 9 10 7 8 8 8 9 10 9 8 6 5 4 4 4 4 4 3 6 5 5 3 2 6 9 6 4 8 10 9 5 3 2 3 4 10 1 17 20 16 14 12 11 11
13 12 11 12 13 13 14 16 16 15 15 12 11 9 7 9 10 9 8 5 8 8 8 7 7 8 9 9 9 8 6 4 4 4 5 6 2 2 6 6 6 2 5 8 4 4 6 6 6 6 9 10 7 5 5 6 14 19 17 14 11 10 11
Wind_Direction
59 64 89 84 28 324 316 312 300 306 323 324 318 317 304 270 180 190 219 238 259 270 221 240 232 237 231 223 216 205 202 201 203 209 201 188 178 166 182 203 222 253 256 219 218 228 227 205 214 227 224 203 219 220 223 225 209 218 223 245 236 299 314
38 37 45 113 161 197 227 298 305 297 302 300 293 265 281 298 312 251 121 55 357 297 289 267 268 254 239 241 227 216 213 212 208 202 184 172 162 181 188 202 213 222 258 283 249 213 229 223 200 210 220 209 210 208 222 231 215 208 220 202 215 211 250
31 31 30 21 21 20 51 135 152 326 317 327 322 330 313 300 289 321 359 92 207 229 244 246 238 240 237 234 222 219 216 213 211 209 191 178 181 191 192 202 222 229 228 263 285 263 225 236 213 214 211 224 220 196 211 229 215 207 208 223 201 208 211
35 29 23 18 14 11 14 16 61 144 255 336 345 321 321 318 332 332 295 237 244 236 211 183 252 247 247 252 240 224 222 220 216 219 211 190 185 185 190 198 197 213 240 227 249 267 242 227 222 206 204 206 218 206 198 213 216 206 206 211 223 209 207
32 29 23 16 12 13 10 12 15 33 86 146 196 244 240 209 181 23 311 291 256 269 241 191 223 237 224 223 241 239 228 229 223 220 221 209 203 189 194 204 193 189 215 214 216 262 257 233 235 217 203 208 218 221 192 201 218 206 200 201 212 217 219
4 15 9 3 6 10 16 10 9 21 25 33 37 46 46 27 24 86 141 311 238 263 250 221 228 213 234 245 243 241 244 238 233 223 224 220 199 199 204 209 199 190 207 210 212 233 264 240 228 208 216 207 216 230 223 203 206 212 194 197 209 217 220
6 1 351 349 354 2 13 9 6 13 16 26 26 24 35 57 38 37 29 29 292 259 246 230 241 248 237 193 237 252 246 250 245 233 231 229 216 209 215 227 226 214 216 225 218 217 242 245 231 237 203 202 212 222 222 226 210 201 189 193 202 206 213
73 4 336 332 337 343 358 357 354 355 1 6 10 4 15 34 65 70 33 357 275 280 295 313 278 259 263 260 219 243 246 248 255 248 234 231 219 212 214 214 213 212 210 224 222 216 232 241 232 229 226 223 208 213 222 211 218 217 201 192 195 202 212
1 11 350 329 323 330 340 339 344 347 345 345 350 349 351 13 3 27 127 146 322 342 336 323 317 343 305 254 250 242 227 240 260 261 251 241 226 219 222 234 232 218 220 226 226 224 234 239 231 231 219 215 223 232 226 213 208 206 225 224 184 188 202
28 7 358 350 346 340 339 332 337 341 338 339 341 350 352 352 354 336 316 280 162 137 242 307 316 217 255 267 254 251 241 228 222 241 245 246 238 231 227 229 249 270 267 240 230 231 231 235 236 239 228 205 214 223 238 229 208 202 210 217 179 186 197
32 14 354 353 352 350 346 341 339 340 337 332 337 343 348 348 341 324 320 313 313 250 124 341 317 292 280 288 292 269 251 246 239 238 228 231 243 247 230 227 225 231 249 272 259 244 237 235 267 284 267 227 214 220 225 231 221 208 210 215 199 196 196
354 355 353 346 341 341 343 337 332 337 337 335 339 338 335 342 342 342 323 319 324 319 325 298 314 304 280 306 336 312 292 266 249 241 232 224 237 243 237 231 227 225 242 250 260 263 273 59 309 254 250 245 236 230 225 225 230 220 215 184 87 82 117
342 349 342 342 336 341 344 338 339 334 333 331 335 335 336 336 340 331 332 326 319 307 313 318 318 308 307 342 266 280 297 304 273 258 248 248 238 249 285 268 237 223 235 237 243 251 249 219 204 243 259 250 254 253 262 254 230 220 108 117 140 151 184
345 347 339 339 342 347 342 335 335 333 332 335 333 332 335 341 335 333 328 336 343 327 323 335 333 325 322 341 3 320 284 307 309 301 285 273 272 267 246 252 289 270 235 224 227 240 243 242 232 218 219 237 238 253 242 240 231 153 165 144 162 168 185
339 340 339 344 342 346 341 335 331 327 328 327 330 336 339 335 333 333 333 331 341 355 12 329 322 326 328 345 39 301 309 308 294 316 308 302 292 268 265 263 251 272 272 256 242 236 235 240 252 247 237 215 211 247 249 197 221 207 177 178 169 178 185
335 335 339 337 337 335 336 333 329 330 327 327 329 334 336 336 336 339 336 333 341 9 350 307 294 306 304 306 157 207 222 221 242 243 260 244 249 267 272 262 247 239 266 273 256 248 238 235 254 256 248 254 241 197 286 258 234 211 192 181 173 176 188
338 338 332 334 331 330 327 327 328 329 330 329 330 332 334 333 331 335 339 345 342 353 294 303 308 309 321 304 226 220 237 259 255 249 253 266 255 242 243 250 256 275 266 247 243 230 226 229 238 238 231 231 244 246 223 259 253 211 197 190 187 177 179
336 330 330 329 329 325 324 324 329 331 328 328 327 327 327 335 339 332 339 340 337 332 302 286 302 317 323 316 308 302 278 238 256 271 275 274 272 273 267 245 239 220 200 244 262 258 255 247 236 234 231 210 183 243 242 229 240 225 199 192 190 186 172
324 323 324 331 326 326 321 326 327 327 324 321 322 321 333 338 327 331 335 337 338 329 313 305 309 320 315 314 314 306 295 261 238 244 233 237 242 248 251 265 272 248 235 239 252 257 247 240 236 234 230 209 202 219 228 226 229 201 197 195 190 190 184
327 329 333 330 326 320 324 320 321 319 320 322 321 330 328 321 325 331 337 331 336 310 315 325 326 318 316 306 291 280 275 264 267 265 261 238 237 238 241 237 246 247 218 236 247 238 231 225 229 223 224 215 204 215 220 219 202 204 203 200 195 194 196
332 335 330 329 325 324 327 328 319 320 319 323 327 321 321 325 326 326 332 334 321 297 306 315 312 302 293 294 288 280 282 262 270 265 260 239 223 230 238 214 228 227 234 195 238 256 257 266 254 238 231 225 221 223 220 231 184 195 195 192 191 192 197
334 332 334 331 330 333 332 325 322 318 323 325 318 321 323 319 319 318 325 318 313 298 307 307 310 302 281 272 300 311 327 303 273 270 271 276 269 266 267 238 198 197 233 266 254 225 255 269 283 304 286 262 240 238 233 227 169 186 183 184 185 187 199
332 326 327 331 330 323 316 314 318 323 324 322 321 319 315 315 314 313 312 316 318 305 302 307 315 318 316 314 316 292 256 272 286 296 290 267 264 249 237 247 204 202 196 234 264 282 261 253 248 248 245 268 276 254 240 218 185 181 182 184 191 192 210
330 323 333 331 319 314 314 323 334 330 325 316 312 313 315 315 313 311 306 310 314 312 307 308 317 319 315 309 312 285 215 247 253 259 274 282 262 257 249 207 185 207 212 220 227 241 233 249 241 242 249 259 268 277 254 220 179 181 181 175 151 177 201
330 327 323 321 320 319 334 341 331 314 306 308 310 318 321 318 314 310 303 312 315 313 309 303 304 300 297 299 294 288 254 226 229 239 251 253 250 245 243 239 242 234 201 231 248 241 242 244 249 236 226 231 238 247 256 238 149 164 175 181 173 190 201
321 330 333 329 332 336 334 321 310 315 320 319 325 329 320 316 313 313 313 315 316 305 307 306 301 294 290 283 276 276 289 282 278 258 255 248 245 240 223 229 239 243 232 222 209 228 251 244 235 247 265 256 251 266 249 208 122 159 173 172 182 194 193
325 336 334 335 333 334 320 324 325 323 325 328 327 320 316 315 315 315 315 314 305 302 308 306 294 293 293 297 294 288 279 259 221 261 261 248 238 242 222 210 217 223 224 215 97 64 281 250 232 240 235 175 226 257 240 235 130 140 160 155 164 164 189
332 334 328 329 324 317 330 332 330 324 321 318 316 314 314 314 311 309 308 310 309 308 313 319 321 312 306 308 306 296 292 284 260 240 250 246 244 237 231 225 224 221 193 156 103 90 269 259 232 209 164 184 186 189 143 174 149 122 127 110 104 95 49
333 331 329 324 327 336 337 331 325 320 317 316 314 312 311 311 306 305 308 305 307 316 329 320 309 308 305 307 293 297 301 297 282 273 255 253 243 244 246 229 226 238 205 110 91 80 327 277 249 198 195 169 137 112 105 108 124 123 114 96 88 80 69
329 324 323 327 329 334 339 325 319 316 315 314 315 319 324 320 313 311 312 311 330 351 322 302 304 305 305 299 284 273 280 283 275 264 265 259 251 241 242 233 214 223 209 150 134 123 191 270 245 199 189 173 154 139 118 117 122 126 122 120 111 97 89
320 323 330 335 336 329 325 323 317 314 312 314 316 317 316 311 308 309 311 318 330 321 312 304 308 304 301 295 285 285 293 284 270 262 250 245 254 243 235 233 215 178 115 85 116 141 159 254 241 209 189 178 168 149 129 117 122 113 119 120 108 93 92
325 330 330 328 324 327 324 318 316 315 314 316 318 317 317 310 306 304 306 312 313 310 289 295 296 294 295 297 295 292 284 285 298 289 272 254 227 228 218 226 223 170 156 149 162 165 148 229 234 234 208 189 169 163 152 141 128 132 136 138 117 108 88
323 325 325 325 325 323 322 322 320 320 322 319 322 320 316 314 311 307 312 309 304 301 296 292 289 286 289 286 290 293 299 75 281 292 285 265 235 214 210 208 226 216 173 151 155 165 152 252 258 234 213 196 185 173 164 160 154 147 156 168 153 147 144
325 324 326 325 325 329 326 328 326 317 317 314 313 317 314 308 307 310 311 308 303 300 294 290 286 290 294 296 298 305 317 308 248 265 280 269 253 228 215 207 211 220 211 173 168 174 178 179 263 262 231 201 183 178 170 170 172 165 158 176 169 165 161
330 329 331 330 331 331 325 325 321 318 313 312 313 314 309 303 304 307 310 309 308 312 297 296 300 299 296 295 289 290 305 308 303 278 278 285 267 246 214 209 216 217 207 40 226 198 190 177 203 236 255 233 186 178 181 185 185 185 165 167 178 166 168
330 332 333 332 327 322 321 320 314 309 305 305 311 309 309 307 309 312 311 307 305 306 296 295 299 300 296 296 301 325 331 338 324 289 290 291 287 269 268 6 79 62 191 191 173 335 122 146 189 179 298 299 70 158 189 201 185 157 159 162 150 121 113
334 333 330 327 324 323 324 320 314 311 310 314 318 320 312 303 306 309 306 314 319 311 294 293 293 295 297 300 302 319 329 313 305 311 302 280 260 285 267 267 277 30 37 343 166 120 95 91 101 86 46 60 120 74 11 25 138 149 160 156 146 135 119
334 332 325 324 326 326 322 321 321 317 314 313 314 313 302 298 299 300 313 332 309 300 291 288 287 286 290 294 297 309 318 319 316 309 299 292 218 167 301 279 263 240 63 54 19 80 100 112 109 93 80 61 61 86 47 75 135 145 150 145 128 119 112